CAPE
12 10 22 25 27 19 7 11 3 0 0 0 1 0 0 0 0 0 0 0 0 0 0 1 3 1 0 0 0 0 0 0 0 0 0 0 0 0 0 0 0 0 0 0 0 85 70
28 24 19 22 29 21 12 12 8 7 0 0 0 0 0 0 0 0 0 0 0 0 0 0 2 0 0 0 0 0 0 0 0 0 0 0 0 0 0 0 0 0 0 80 103 140 104
13 24 29 12 23 27 20 18 18 3 0 0 0 0 0 0 0 0 0 0 0 0 0 0 1 0 0 0 0 0 0 0 0 0 0 0 0 0 0 0 0 0 96 110 169 145 128
24 20 24 32 13 10 24 20 17 17 13 10 0 4 0 0 0 0 0 0 0 0 0 0 0 0 0 0 0 0 0 0 0 0 0 0 0 0 0 0 0 0 0 0 143 114 23
57 19 24 30 29 26 14 28 21 16 16 7 0 0 0 1 0 0 0 0 0 0 2 0 0 0 0 0 0 0 0 0 0 0 0 0 0 0 0 0 0 0 0 0 167 62 22
43 60 22 30 30 30 29 7 27 21 14 4 0 0 0 0 0 0 0 0 0 0 0 0 0 0 0 0 0 0 0 0 0 0 0 0 0 0 0 0 2 0 0 0 0 0 8
70 66 54 41 32 35 25 32 12 26 21 12 0 0 0 0 0 0 0 0 0 0 0 0 0 0 0 0 0 0 0 0 0 0 0 0 0 0 0 0 0 0 0 0 0 0 0
79 81 71 29 49 45 36 38 23 24 22 20 13 5 0 0 0 0 0 0 0 0 0 0 0 0 0 0 0 0 0 0 0 0 0 0 0 0 0 0 0 0 0 0 0 0 0
78 69 62 50 23 49 49 44 38 31 26 21 11 4 0 0 0 0 0 0 0 0 0 0 0 0 0 0 0 0 0 0 0 0 0 0 0 0 0 0 0 0 0 0 0 0 0
58 59 66 71 59 38 56 41 41 31 33 20 12 0 0 0 0 0 0 0 0 0 0 0 0 0 0 0 0 0 0 0 0 0 0 0 0 0 0 0 0 0 0 0 0 0 0
69 65 54 55 74 55 46 42 41 40 27 36 14 0 0 0 0 0 0 0 0 0 0 0 0 0 0 0 0 0 0 0 0 0 0 0 0 0 0 0 0 0 0 0 0 0 0
70 69 53 47 47 61 48 42 34 40 35 27 23 11 0 1 0 0 0 0 0 0 0 0 0 0 0 0 0 0 0 0 0 0 0 0 0 0 0 0 0 0 0 0 0 0 0
74 84 72 59 41 41 85 74 41 39 38 32 29 29 32 2 0 0 0 0 63 0 0 0 0 0 0 0 0 0 0 0 0 0 0 0 0 0 0 0 0 0 0 0 0 0 0
97 87 82 69 63 42 52 97 59 36 50 37 29 27 39 19 0 0 18 68 1 0 0 0 0 0 0 0 0 0 0 0 0 0 0 0 0 0 0 0 0 0 0 0 0 0 0
99 108 102 83 62 53 55 88 92 48 61 27 34 10 41 27 0 0 39 25 0 0 0 0 0 0 0 0 0 0 0 0 0 0 0 0 0 0 0 0 0 0 0 0 0 0 0
97 83 97 93 76 58 42 65 94 82 51 45 28 26 2 33 0 0 3 7 10 0 0 0 0 0 0 0 0 0 0 0 0 0 0 0 0 0 0 0 0 0 0 0 0 0 0
107 82 86 100 57 60 38 38 101 105 52 85 60 26 0 49 11 5 0 2 2 0 0 0 0 0 0 0 0 0 0 0 0 0 0 0 0 0 0 0 0 0 0 0 0 0 0
123 98 74 94 63 48 39 38 86 106 55 60 55 3 0 24 33 25 13 0 0 0 0 0 0 0 0 0 0 0 0 0 0 0 0 0 0 0 0 0 0 0 0 0 0 0 0
162 121 86 90 80 24 31 33 80 93 73 26 35 30 80 0 19 2 7 0 0 0 0 0 0 0 0 0 0 0 0 0 0 0 0 0 0 0 0 0 0 0 0 0 0 0 0
149 163 121 98 94 32 26 41 84 99 70 26 56 10 76 62 0 0 5 2 0 0 0 0 0 0 0 0 0 0 0 0 0 0 0 0 0 0 0 0 0 0 0 0 0 0 0
159 113 63 94 80 36 34 46 88 92 62 28 62 1 28 4 7 2 0 0 2 0 0 0 0 0 0 0 0 0 0 0 0 0 0 0 0 0 0 0 0 0 0 0 0 0 0
164 135 83 75 68 33 38 51 90 45 70 6 20 23 77 1 0 14 24 8 1 0 0 0 0 0 0 0 0 0 0 0 0 0 0 0 0 0 0 0 0 0 0 0 0 0 0
216 184 101 99 48 28 43 55 78 16 63 4 1 0 24 1 2 13 0 0 3 0 0 0 0 0 0 0 0 0 0 0 0 0 0 0 0 0 0 0 0 0 0 0 0 0 0
246 202 125 90 31 30 48 70 45 31 18 0 0 43 66 27 21 0 0 5 7 0 0 0 0 0 0 0 0 0 0 0 0 0 0 0 0 0 0 0 0 0 0 0 0 0 0
253 161 100 111 31 33 56 53 31 49 7 0 0 4 54 55 18 31 9 0 12 0 0 0 0 0 0 0 0 0 0 0 0 0 0 0 0 0 0 0 0 0 0 0 0 0 0
200 126 98 71 29 47 42 29 36 35 36 0 3 3 35 29 35 27 35 0 0 0 0 0 0 0 0 2 0 2 16 0 0 0 0 0 0 0 0 0 0 0 0 0 0 0 0
140 76 70 42 41 49 37 40 23 33 76 0 0 0 45 9 10 34 15 0 5 0 0 0 0 0 0 0 0 0 7 0 1 0 0 0 0 0 0 0 0 0 0 0 0 0 0
52 69 50 39 34 39 38 32 7 54 83 0 0 0 49 11 0 2 54 0 0 0 0 0 34 5 0 0 0 0 0 0 0 0 0 0 0 0 0 0 0 0 0 0 0 0 0
13 27 32 30 34 40 36 33 54 64 72 3 1 0 0 36 3 0 0 0 0 0 0 0 0 0 0 0 0 0 0 0 0 0 0 0 0 0 0 0 0 0 0 0 0 0 0
CIN
-1 0 -1 0 0 -1 0 0 0 -4 -3 0 -19 0 0 0 0 0 0 0 0 0 0 0 0 0 0 0 0 0 0 0 0 0 0 0 0 0 0 0 0 0 0 0 0 -289 -290
-1 0 0 -2 -1 -1 0 0 0 -1 0 -6 0 -6 0 0 0 0 0 0 0 0 0 0 0 0 0 0 0 0 0 0 0 0 0 0 0 0 0 0 0 0 0 -158 -276 -232 -238
0 -1 -2 0 -1 -2 -1 -1 -1 -1 0 0 -11 0 -2 0 0 0 0 0 0 0 0 0 0 0 0 0 0 0 0 0 0 0 0 0 0 0 0 0 0 0 -89 -146 -189 -179 -174
0 -1 -1 -1 -1 -1 -3 -4 -4 -2 0 -1 0 -5 -2 0 0 0 0 0 0 0 0 0 0 0 0 0 0 0 0 0 0 0 0 0 0 0 0 0 0 0 0 0 -132 -161 -213
0 0 -1 -1 -1 -3 -2 -2 -4 -2 -1 -2 0 -1 -2 -18 0 0 0 0 0 0 0 0 0 0 0 0 0 0 0 0 0 0 0 0 0 0 0 0 0 0 0 0 -72 -163 -175
0 0 -1 0 -1 -2 -2 0 -4 -3 -3 -4 0 0 0 0 0 0 0 0 0 0 0 0 0 0 0 0 0 0 0 0 0 0 0 0 0 0 0 0 -21 -3 0 0 0 0 -135
0 0 0 -1 0 -1 -2 -1 0 -4 -4 -3 0 0 0 0 0 0 0 0 0 0 0 0 0 0 0 0 0 0 0 0 0 0 0 0 0 0 0 0 0 0 0 0 0 0 0
0 0 0 0 0 0 -1 0 -2 -4 -5 -3 -3 -3 0 0 0 0 0 0 0 0 0 0 0 0 0 0 0 0 0 0 0 0 0 0 0 0 0 0 0 0 0 0 0 0 0
0 0 0 0 -1 0 -1 0 -1 -5 -7 -5 -7 -4 -3 -1 0 0 0 0 0 0 0 0 0 0 0 0 0 0 0 0 0 0 0 0 0 0 0 0 0 0 0 0 0 0 0
0 0 0 0 0 0 0 -2 -1 -3 -6 -9 -11 0 0 0 0 0 0 0 0 0 0 0 0 0 0 0 0 0 0 0 0 0 0 0 0 0 0 0 0 0 0 0 0 0 0
0 0 0 0 0 0 -1 -1 -6 -4 -5 -6 -14 0 0 0 0 0 0 0 0 0 0 0 0 0 0 0 0 0 0 0 0 0 0 0 0 0 0 0 0 0 0 0 0 0 0
0 0 0 0 0 0 -2 -1 -8 -9 -8 -8 -12 -13 -4 0 0 0 0 0 0 0 0 0 0 0 0 0 0 0 0 0 0 0 0 0 0 0 0 0 0 0 0 0 0 0 0
0 0 0 0 0 0 0 0 -2 -14 -8 -6 -10 -12 -2 -2 -3 0 0 0 -2 0 0 0 0 0 0 0 0 0 0 0 0 0 0 0 0 0 0 0 0 0 0 0 0 0 0
0 0 0 0 0 0 0 0 -1 -7 -8 -6 -11 -17 -2 -1 0 0 -19 -1 -3 0 0 0 0 0 0 0 0 0 0 0 0 0 0 0 0 0 0 0 0 0 0 0 0 0 0
0 0 0 0 0 0 0 -2 -2 -3 -17 -10 -13 -16 -1 -1 -1 0 -13 0 0 0 0 0 0 0 0 0 0 0 0 0 0 0 0 0 0 0 0 0 0 0 0 0 0 0 0
0 0 0 0 0 0 0 0 -1 -1 -20 -11 -6 -1 -3 -2 0 0 -1 -1 -6 0 0 0 0 0 0 0 0 0 0 0 0 0 0 0 0 0 0 0 0 0 0 0 0 0 0
0 0 0 0 0 0 0 0 -1 -1 -15 -13 -1 -1 0 -7 -7 -40 0 -3 -3 0 0 0 0 0 0 0 0 0 0 0 0 0 0 0 0 0 0 0 0 0 0 0 0 0 0
0 0 0 0 0 0 0 0 -1 0 -13 -17 -1 -1 0 -2 -1 -2 -1 0 0 0 0 0 0 0 0 0 0 0 0 0 0 0 0 0 0 0 0 0 0 0 0 0 0 0 0
0 0 0 0 0 -7 -1 0 -1 -1 -12 -6 -2 -4 -1 -1 -1 -2 -3 -2 0 0 0 0 0 0 0 0 0 0 0 0 0 0 0 0 0 0 0 0 0 0 0 0 0 0 0
0 0 0 0 0 -6 -2 0 0 -1 -11 -30 -1 -4 -1 -1 0 0 -1 -2 0 0 0 0 0 0 0 0 0 0 0 0 0 0 0 0 0 0 0 0 0 0 0 0 0 0 0
0 -1 -6 0 0 0 0 0 0 0 -14 -39 -1 -8 -11 -9 -1 -2 -1 -1 -1 0 0 0 0 0 0 0 0 0 0 0 0 0 0 0 0 0 0 0 0 0 0 0 0 0 0
0 0 -3 0 0 0 0 0 0 -1 -3 -8 -25 -14 -6 -16 -1 -1 -3 -1 -1 0 0 0 0 0 0 0 0 0 0 0 0 0 0 0 0 0 0 0 0 0 0 0 0 0 0
0 0 -1 0 0 0 0 0 0 -1 -2 -5 -1 0 -54 -14 -3 -1 -1 -1 -1 0 0 0 0 0 0 0 0 0 0 0 0 0 0 0 0 0 0 0 0 0 0 0 0 0 0
0 0 0 0 0 0 0 -4 0 0 -3 0 -1 -2 -2 -5 -1 -1 -1 -1 -2 0 0 0 0 0 0 0 0 0 0 0 0 0 0 0 0 0 0 0 0 0 0 0 0 0 0
0 0 0 0 0 0 0 0 0 -1 -3 0 0 -13 -1 -2 -4 -2 -2 0 -3 0 0 0 0 0 0 0 -65 0 -8 0 0 0 0 0 0 0 0 0 0 0 0 0 0 0 0
0 0 0 0 0 0 0 0 -1 -1 -3 0 -33 -76 -25 -2 -9 -7 -3 -1 0 -2 0 0 0 0 0 -134 0 -24 -47 0 -6 0 0 0 0 0 0 0 0 0 0 0 0 0 0
0 -2 -1 0 0 0 0 0 -1 -6 -1 0 0 0 -34 0 -36 -37 -5 0 -10 0 0 0 0 0 0 0 0 0 -44 0 -15 0 0 0 0 0 0 0 0 0 0 0 0 0 0
-3 0 0 0 0 0 0 -1 -5 -1 -1 -2 0 -10 -34 0 0 -23 -24 0 0 0 0 0 -17 -28 0 -7 0 0 0 0 0 0 0 0 0 0 0 0 0 0 0 0 0 0 0
0 0 0 0 0 0 0 0 -1 -1 -1 -1 -6 0 0 0 -2 -1 0 0 0 0 0 0 0 0 -18 0 0 0 0 0 0 0 0 0 0 0 0 0 0 0 0 0 0 0 0
Wind_Speed
18 18 16 15 14 13 15 14 14 12 12 12 11 10 9 9 9 9 9 9 9 11 12 13 14 16 5 4 8 3 9 11 6 5 4 3 2 3 1 3 1 3 5 2 5 7 5
19 18 18 17 15 15 16 14 12 13 13 13 12 11 11 9 9 9 10 10 9 9 10 11 12 12 2 4 1 5 8 7 6 3 3 4 4 4 3 2 1 3 5 2 4 3 4
20 20 18 19 18 15 15 14 12 13 13 12 13 12 11 10 10 9 10 10 9 9 9 9 9 3 1 14 4 3 5 4 6 4 2 4 3 2 1 4 4 3 0 2 2 4 3
22 20 20 18 19 19 16 14 12 13 13 12 12 12 12 10 10 9 11 11 10 10 9 7 4 2 9 4 1 5 4 3 5 5 3 6 3 4 2 4 6 4 4 1 1 2 1
23 24 21 20 18 16 18 15 14 12 12 12 12 12 12 10 9 9 11 13 13 12 6 2 1 0 11 7 3 5 7 4 5 3 5 3 2 0 4 3 5 7 1 4 3 4 4
26 24 25 21 19 18 16 19 14 13 11 11 12 11 11 10 9 9 10 15 5 1 2 3 1 3 6 1 4 2 3 4 2 2 2 3 5 2 4 4 2 1 2 3 2 3 2
27 25 25 24 22 20 20 17 19 14 12 12 11 12 11 10 8 6 6 4 4 2 2 8 4 4 5 7 3 4 4 6 3 5 2 3 4 2 6 5 5 4 2 3 5 5 6
25 26 24 24 24 22 21 19 16 15 13 13 10 10 11 8 7 1 3 2 1 1 9 9 13 8 5 3 5 4 8 6 5 4 1 5 4 6 4 3 4 2 4 6 7 3 5
28 26 28 25 24 25 22 20 17 14 13 12 8 11 11 9 2 2 3 6 2 2 3 9 6 6 6 9 8 7 8 5 4 4 4 5 4 2 3 3 4 4 2 5 5 5 1
30 28 28 27 25 24 23 21 19 16 15 13 9 10 9 5 1 4 4 2 5 5 3 8 5 8 7 7 5 8 7 7 2 8 6 4 4 3 1 2 4 2 5 3 5 1 1
32 31 29 28 26 23 21 22 19 16 15 14 10 10 5 10 2 2 1 4 1 1 3 4 4 1 5 10 5 6 5 4 9 6 6 9 2 5 3 6 5 9 3 2 2 2 4
34 33 31 29 28 27 23 23 22 17 16 15 12 11 5 6 1 5 5 5 2 3 9 5 6 7 6 5 3 3 5 6 4 6 1 5 2 4 6 4 6 1 3 6 4 3 3
34 34 32 31 29 27 25 23 24 20 18 16 14 11 8 4 3 1 2 1 4 6 1 5 5 6 6 6 4 5 7 6 7 5 3 2 3 2 3 2 2 3 6 3 4 5 5
34 34 34 33 30 28 26 24 25 21 19 16 13 11 7 7 1 1 2 4 11 6 7 3 1 4 9 6 6 5 6 6 1 5 3 6 5 6 4 6 7 3 6 6 3 3 4
36 35 35 34 32 29 27 25 24 24 20 14 11 3 5 6 6 1 2 11 9 7 4 3 3 5 4 4 6 5 8 8 9 9 7 5 4 1 1 1 2 3 2 5 7 3 3
38 37 36 36 33 31 28 26 27 27 24 17 6 5 9 8 10 3 5 17 7 5 3 2 7 6 9 8 6 8 9 6 7 10 5 7 2 1 1 2 2 2 7 3 3 3 3
38 37 36 36 36 32 30 28 28 28 26 21 7 5 6 10 8 4 12 11 16 11 2 2 2 2 7 8 9 6 9 3 8 6 5 6 5 5 0 5 8 2 2 5 5 5 5
37 37 37 36 37 34 31 30 28 30 29 21 6 7 9 14 12 9 18 7 8 17 2 4 3 4 4 7 7 8 11 10 10 11 10 7 6 5 10 3 3 5 6 6 6 4 1
35 36 36 37 38 36 33 32 31 31 32 13 6 5 11 14 15 19 12 12 5 14 8 6 5 4 1 4 4 7 8 5 10 9 10 8 1 2 8 6 4 4 4 3 6 4 7
36 35 35 36 39 37 35 33 34 34 34 13 5 9 7 12 17 19 24 16 23 6 5 6 2 3 1 3 4 7 7 5 8 8 7 7 5 9 9 10 5 5 6 5 6 4 5
36 35 35 36 40 39 36 35 36 35 33 12 6 8 7 17 24 21 19 14 21 18 16 8 2 5 3 3 1 4 2 2 2 6 5 8 7 6 4 5 4 5 5 8 7 6 7
37 35 35 35 40 39 37 36 41 39 33 9 4 5 4 6 19 25 14 25 23 23 9 16 6 9 8 5 7 5 3 4 7 5 6 1 5 4 2 2 2 3 5 5 4 3 5
35 35 34 35 41 40 37 38 42 39 32 6 5 4 3 14 20 18 31 17 20 19 20 7 22 17 8 20 16 8 6 4 1 5 9 8 8 4 4 3 4 7 10 9 6 6 7
33 34 34 34 42 39 37 38 42 42 34 4 7 2 4 7 13 24 18 21 22 22 13 19 7 13 7 4 6 5 6 5 7 5 1 9 8 3 4 3 2 7 1 3 8 7 6
31 31 33 37 41 39 41 40 37 37 35 3 6 4 2 3 12 11 17 25 15 15 14 12 14 5 4 4 3 1 5 3 2 5 5 2 7 4 6 4 5 4 5 8 9 9 7
31 32 34 41 41 40 41 40 38 31 33 8 3 3 2 2 5 9 14 15 18 14 9 8 15 2 5 3 3 7 7 6 5 3 4 6 6 7 3 6 9 9 5 5 5 5 8
31 30 37 40 39 39 40 40 38 34 30 10 3 4 1 1 4 2 16 12 10 12 2 5 13 4 6 1 3 4 6 4 7 11 6 4 4 6 3 3 9 9 4 4 6 11 9
29 36 37 37 35 37 37 35 33 30 29 13 3 5 2 4 9 7 4 7 10 16 14 4 6 4 3 7 5 5 4 7 3 5 8 9 8 4 3 3 8 7 4 10 9 1 6
36 36 35 34 33 34 33 32 29 28 27 15 3 7 5 5 3 1 7 10 5 1 12 9 8 7 8 5 1 2 2 0 5 5 0 3 8 9 11 10 5 6 5 5 5 6 7
Wind_Direction
288 288 290 286 291 289 291 292 297 296 301 295 272 270 270 277 285 293 300 306 311 320 323 326 330 332 349 349 252 69 88 116 118 117 203 169 205 185 236 233 260 212 270 288 224 138 94
286 282 283 288 279 281 284 285 291 297 294 298 289 269 267 268 277 287 294 299 303 307 317 322 328 331 14 288 84 109 134 117 133 153 207 181 222 233 257 244 191 234 300 29 50 118 106
275 281 278 277 281 272 272 272 277 287 292 289 295 279 270 270 274 284 290 293 295 296 305 312 327 335 38 238 96 24 188 168 167 172 217 224 239 260 341 308 248 280 356 64 88 171 135
265 266 271 273 272 275 269 265 266 279 286 292 287 289 273 268 274 284 290 293 290 284 293 291 323 303 251 242 209 273 194 238 203 202 250 268 265 253 223 309 1 30 63 127 163 126 102
267 263 260 266 270 264 271 267 263 264 276 289 289 289 284 272 275 284 295 294 291 284 247 241 45 21 268 320 270 244 167 182 143 173 246 318 12 296 14 46 9 9 51 6 35 191 115
277 268 261 259 262 267 264 268 263 263 267 277 288 287 285 276 276 290 304 298 293 83 147 163 236 335 272 187 293 245 189 141 134 359 43 84 44 41 32 69 161 17 38 328 274 249 160
271 274 275 255 255 254 261 261 266 257 262 271 279 286 285 282 271 301 349 334 324 269 205 202 186 253 276 296 260 255 158 109 94 67 248 32 60 207 229 204 150 138 128 246 239 234 155
255 267 269 276 251 250 252 258 257 264 257 261 276 290 290 283 259 339 354 263 294 145 308 238 242 258 262 82 291 269 142 129 135 199 184 24 241 219 179 186 191 119 7 321 283 38 161
253 252 260 264 271 250 243 249 251 255 253 255 272 293 299 290 151 81 250 242 80 74 279 281 198 206 195 151 216 249 147 132 147 156 191 171 259 287 159 137 270 24 294 296 252 338 78
249 249 251 252 256 261 247 238 244 242 260 241 247 267 294 151 201 151 242 265 291 165 310 266 228 255 156 164 237 211 192 139 120 199 160 225 274 249 100 161 130 307 205 225 268 29 198
244 242 243 248 247 247 252 233 228 232 242 250 229 249 252 189 84 187 50 346 217 148 315 229 183 148 165 161 159 217 179 71 160 168 119 245 225 203 195 215 154 229 173 292 308 94 70
242 239 236 238 244 242 242 243 219 222 225 243 236 241 229 196 230 241 314 332 262 66 245 301 158 162 156 183 181 123 132 65 131 115 159 239 220 196 219 196 181 183 92 43 41 65 46
240 235 233 232 233 237 237 230 225 207 220 224 231 226 189 175 215 51 323 275 212 201 271 234 189 161 181 162 188 158 151 146 142 114 242 291 213 260 205 129 76 100 63 349 7 16 219
240 234 227 226 228 229 229 227 224 202 206 210 217 227 229 222 237 342 169 212 224 215 220 303 189 112 184 142 213 173 123 154 169 104 114 177 303 181 198 196 178 149 146 151 214 193 257
237 233 227 222 221 221 222 222 216 199 184 195 199 236 231 204 210 175 194 222 196 225 219 228 88 129 226 215 148 139 175 183 177 168 162 153 271 280 212 351 145 169 152 163 105 1 50
237 232 228 217 216 215 215 217 212 201 176 186 192 215 229 183 172 185 205 229 219 226 328 23 195 177 181 193 153 162 180 198 190 184 165 202 180 258 267 144 231 169 158 75 10 168 253
234 231 226 219 207 208 209 210 209 200 172 174 181 201 206 171 151 206 211 218 221 265 28 324 290 275 208 170 168 186 199 265 188 157 127 138 127 273 92 203 194 129 186 60 114 129 168
232 228 225 216 205 200 202 204 203 197 167 163 186 200 167 155 185 211 220 203 220 228 189 258 285 239 216 184 161 185 193 201 169 149 158 198 147 199 217 275 186 168 182 142 125 210 139
230 225 222 216 205 193 196 200 196 189 171 154 198 186 178 168 187 213 205 202 249 215 204 186 246 220 330 206 179 186 197 230 151 147 161 181 202 63 338 356 346 212 190 123 107 93 192
228 220 218 213 197 189 191 194 190 183 176 155 178 176 168 194 218 202 196 202 211 233 242 193 227 252 1 303 238 212 203 201 182 189 129 111 140 164 196 210 171 177 176 166 138 120 181
222 219 212 210 192 185 188 189 186 177 175 159 193 211 191 181 209 205 195 187 198 213 212 172 238 222 166 237 264 189 148 109 105 168 128 137 191 177 217 216 180 200 182 165 182 194 164
216 212 206 208 189 179 183 185 180 170 182 176 174 199 183 195 201 204 205 205 197 204 172 212 204 195 207 207 202 178 160 195 186 188 151 148 200 162 135 99 79 234 249 218 233 188 246
207 207 204 198 183 174 179 183 179 169 177 166 178 272 246 211 182 190 213 194 196 195 230 200 209 217 187 222 235 256 207 204 176 191 166 141 131 117 222 22 47 318 218 213 201 197 180
201 199 195 194 172 171 176 176 170 178 184 111 162 246 211 192 190 207 187 202 194 207 208 213 232 214 222 99 98 57 52 83 94 42 58 136 112 94 157 51 259 251 307 195 198 235 230
193 192 185 183 167 166 170 166 176 179 178 134 145 193 204 242 197 200 194 197 204 216 223 233 230 211 149 85 74 64 332 38 44 43 10 56 121 102 135 187 288 282 210 173 173 254 193
183 180 181 170 162 164 165 165 176 177 180 173 106 106 303 335 217 186 190 177 196 204 227 240 249 93 42 103 90 174 201 171 205 100 76 70 62 113 133 156 211 233 234 158 104 277 177
172 172 168 160 161 168 168 170 177 185 181 169 154 99 359 265 278 239 195 187 162 194 197 160 189 170 132 166 147 170 236 182 165 159 166 63 28 144 115 205 286 245 235 143 128 238 170
172 162 153 151 156 162 166 170 175 180 176 167 177 141 225 178 270 299 256 159 179 191 197 150 122 214 42 178 163 199 148 216 125 168 174 152 144 171 88 66 282 173 101 170 216 307 156
130 134 142 150 156 158 161 170 172 175 176 160 173 184 220 240 275 305 257 258 226 181 178 203 188 156 181 155 143 122 122 86 151 206 57 200 179 175 174 208 223 212 210 227 176 160 166